Temperature
16 16 16 16 16 15 15 15 15 15 15 15 15 15 15 14 14 14 14 14 14 14 14 14 14 13 13 13 13 13 13 13 13 12 12 12 12 11 11 11 11 11 11
16 16 16 16 15 15 15 15 15 15 15 15 15 15 14 14 14 14 14 14 14 14 14 13 13 13 13 13 13 13 13 12 12 12 12 12 12 11 11 11 11 11 11
16 16 16 15 15 15 15 15 15 15 15 15 14 14 14 14 14 14 14 14 14 14 13 13 13 13 13 13 13 13 12 12 12 12 12 11 11 11 11 11 11 11 11
16 16 16 15 15 15 15 15 15 15 15 14 14 14 14 14 14 14 14 14 13 13 13 13 13 13 13 13 13 12 12 12 12 12 11 11 11 11 11 11 11 11 11
16 16 16 15 15 15 15 15 15 15 14 14 14 14 14 14 14 14 14 14 13 13 13 13 13 13 13 12 12 12 12 12 12 11 11 11 11 11 10 10 10 10 10
16 16 15 15 15 15 15 15 14 14 14 14 14 14 14 14 14 14 13 13 13 13 13 13 13 12 12 12 12 12 12 12 11 11 11 11 10 10 10 10 10 10 10
16 16 15 15 15 15 15 15 14 14 14 14 14 14 14 14 13 13 13 13 13 13 13 12 12 12 12 12 12 12 11 11 11 11 10 10 10 10 10 10 9 9 9
16 16 15 15 15 15 15 14 14 14 14 14 14 14 13 13 13 13 13 13 13 13 12 12 12 12 12 12 11 11 11 11 10 10 10 10 9 9 9 9 9 9 9
16 16 15 15 15 15 14 14 14 14 14 14 13 13 13 13 13 13 13 13 13 12 12 12 12 12 11 11 11 11 11 10 10 10 10 9 9 9 9 9 9 9 9
16 15 15 15 15 15 14 14 14 14 14 13 13 13 13 13 13 12 12 12 12 12 12 12 11 11 11 11 11 10 10 10 10 9 9 9 9 9 9 8 8 8 8
15 15 15 15 15 14 14 14 14 13 13 13 13 13 13 12 12 12 12 12 12 11 11 11 11 11 11 10 10 10 10 9 9 9 9 9 9 9 8 8 8 7 7
15 15 15 15 14 14 14 14 13 13 13 13 13 12 12 12 12 12 12 11 11 11 11 11 10 10 10 10 10 9 9 9 9 9 9 9 9 8 8 8 7 7 7
15 15 15 14 14 14 13 13 13 13 13 13 12 12 12 12 12 11 11 11 11 11 10 10 10 10 10 9 9 9 9 9 9 8 8 8 8 7 7 7 7 7 7
15 14 14 14 14 13 13 13 13 13 12 12 12 12 12 12 11 11 11 11 11 10 10 10 10 9 9 9 9 9 8 8 8 8 7 7 7 7 7 6 6 6 6
14 14 14 14 13 13 13 13 12 12 12 12 12 12 12 12 11 11 11 11 10 10 10 10 9 9 9 9 8 8 8 8 7 7 7 7 7 6 6 6 6 5 5
14 14 13 13 13 13 13 12 12 12 11 11 11 11 11 11 11 10 10 10 10 10 9 9 9 9 9 8 8 8 7 7 7 7 6 6 6 6 6 5 5 5 5
14 13 13 13 13 12 12 12 12 11 11 11 11 11 11 11 10 10 10 10 9 9 9 9 9 8 8 8 7 7 7 7 7 6 6 6 6 5 5 5 5 4 4
13 13 13 13 12 12 12 11 11 11 11 11 10 10 10 10 10 10 10 9 9 9 9 9 8 8 8 7 7 7 7 7 6 6 6 5 5 5 5 4 4 4 4
13 13 13 12 12 12 11 11 11 11 11 10 10 10 10 10 10 9 9 9 9 9 8 8 8 7 7 7 6 6 6 6 6 5 5 5 5 4 4 4 4 4 3
13 12 12 12 11 11 11 11 10 10 10 10 10 10 9 9 9 9 9 9 8 8 8 8 7 7 7 6 6 6 6 5 5 5 5 5 4 4 4 4 4 3 3
12 12 12 11 11 11 11 10 10 10 10 10 9 9 9 9 9 9 9 8 8 8 7 7 7 7 6 6 6 5 5 5 5 5 4 4 4 4 4 3 3 3 3
12 12 11 11 11 10 10 10 10 10 9 9 9 9 9 8 8 8 8 8 7 7 7 7 6 6 6 6 5 5 5 5 4 4 4 4 4 3 3 3 3 2 2
11 11 11 10 10 10 10 10 9 9 9 9 9 9 8 8 8 8 8 7 7 7 7 6 6 6 6 5 5 5 4 4 4 4 3 3 3 3 3 2 2 2 2
11 11 11 10 10 10 10 9 9 9 9 9 9 8 8 8 8 7 7 7 7 7 6 6 6 6 5 5 5 4 4 4 3 3 3 3 2 2 2 2 2 1 1
11 10 10 10 10 9 9 9 9 9 9 8 8 8 8 7 7 7 7 6 6 6 6 6 5 5 5 5 4 4 4 3 3 3 2 2 2 2 2 1 1 1 1
10 10 10 9 9 9 9 9 9 8 8 8 8 7 7 7 7 7 6 6 6 5 5 5 5 5 4 4 4 4 3 3 3 2 2 2 2 1 1 1 1 1 1
Wind_Speed
6 5 5 5 5 5 4 4 3 3 3 3 3 3 4 3 3 4 3 3 4 3 3 4 3 3 3 2 2 2 2 2 2 1 2 2 2 3 5 7 7 7 8
6 6 6 5 5 5 4 4 4 3 3 3 3 3 3 3 3 4 3 3 4 3 3 3 3 3 3 2 2 3 2 1 2 0 2 2 3 2 3 4 6 6 7
6 6 6 5 5 5 4 4 4 4 3 3 3 3 3 3 3 3 3 3 3 3 3 3 2 3 3 2 2 2 2 2 2 2 1 1 2 2 3 3 5 5 6
7 7 7 6 6 5 5 4 4 4 4 3 3 3 3 3 3 3 3 3 3 3 3 2 2 2 2 2 2 2 2 3 2 2 1 1 2 2 2 2 3 3 4
8 7 7 5 5 5 5 4 4 4 4 4 3 3 3 3 3 3 4 4 3 3 3 2 2 2 2 2 2 2 2 2 2 2 1 1 2 2 2 2 2 3 3
8 7 6 6 6 5 5 5 5 5 4 4 4 3 3 2 3 5 5 4 3 3 2 2 2 3 4 4 4 4 4 3 2 2 0 0 1 1 1 1 1 2 3
8 7 7 7 7 6 6 6 5 5 4 4 3 3 2 2 4 6 6 5 4 3 2 2 2 3 4 4 5 6 5 5 3 3 2 1 1 2 1 1 1 1 2
8 7 7 7 7 7 6 6 5 4 4 4 3 3 3 2 5 6 7 5 4 3 2 2 2 1 2 3 4 4 4 4 3 2 2 1 1 2 2 1 1 1 2
7 7 7 8 7 7 7 7 5 5 4 3 3 4 3 2 5 7 7 4 3 2 2 2 2 1 2 5 5 3 3 3 4 4 4 3 4 3 3 2 2 2 3
8 7 7 7 8 8 8 6 5 5 4 4 3 3 3 3 4 6 8 4 3 2 1 1 2 2 3 5 4 3 1 2 2 4 5 6 5 5 4 2 1 0 1
6 6 7 7 7 7 7 5 6 5 5 4 3 2 2 2 3 6 7 4 4 3 2 1 0 2 3 4 4 2 1 1 2 2 3 3 4 4 4 3 1 1 1
7 7 6 6 6 6 7 6 6 6 6 4 3 2 1 1 2 4 6 6 5 4 2 1 1 3 4 4 3 2 3 4 2 2 2 3 3 3 3 4 3 2 2
7 7 6 6 6 6 7 7 6 5 5 4 4 2 1 0 1 3 5 6 6 4 3 4 4 4 3 3 3 3 3 2 2 2 1 2 2 3 3 4 4 4 4
8 6 6 6 6 5 5 5 6 6 5 5 4 3 2 1 1 1 2 3 4 3 3 4 5 5 3 3 3 2 2 1 1 0 1 2 2 2 2 2 3 3 3
7 7 6 6 6 6 4 4 5 4 6 6 5 5 4 3 3 5 5 3 3 4 4 3 2 2 2 1 1 1 1 1 0 1 1 1 2 2 2 2 2 2 2
7 7 6 5 5 5 5 4 3 3 5 6 6 5 3 4 5 6 6 6 6 8 6 2 2 1 1 1 1 1 0 1 1 1 1 1 2 2 3 3 2 2 4
8 7 6 6 6 6 5 6 4 2 3 4 5 5 5 5 6 6 6 6 6 7 4 2 2 2 2 2 2 1 2 2 1 1 2 2 2 3 3 3 3 4 4
7 7 7 6 6 6 5 5 5 5 3 1 1 4 4 5 6 6 6 6 3 3 2 3 3 3 3 2 2 2 2 2 1 2 2 3 3 3 3 4 4 4 5
6 5 5 5 5 5 5 5 4 5 4 3 2 2 3 4 4 5 6 3 3 3 2 3 3 3 3 3 3 2 2 2 2 2 3 3 3 3 4 4 5 6 6
5 8 7 6 5 5 5 5 5 4 4 3 3 2 2 3 2 2 2 2 3 3 3 3 3 3 3 3 3 2 2 3 3 3 3 3 3 3 4 5 5 5 5
5 6 8 6 5 5 5 5 5 4 4 3 3 3 6 4 4 3 3 3 3 3 3 3 3 3 2 2 3 3 3 3 3 3 3 4 4 4 4 5 5 5 6
5 5 5 5 5 5 5 5 4 4 4 4 2 2 5 3 3 3 3 3 3 3 3 3 3 3 3 3 3 3 3 4 3 3 4 4 4 4 4 4 5 5 6
6 6 5 5 5 6 5 4 4 4 4 4 4 3 3 3 3 3 3 3 2 2 3 3 3 2 2 3 3 3 4 4 4 4 4 4 4 4 4 5 6 6 6
6 6 6 5 4 4 5 4 4 4 4 4 3 3 3 3 3 3 2 2 1 1 2 2 3 3 3 3 3 4 5 6 5 5 5 4 4 4 5 5 6 7 7
6 5 5 5 5 4 4 4 4 4 3 3 3 3 2 2 2 2 1 1 1 1 1 1 2 2 4 4 4 5 6 6 6 6 5 4 4 5 5 6 6 6 6
5 5 5 4 4 4 4 4 3 3 3 3 2 2 2 2 2 1 1 1 1 1 1 1 2 2 3 4 5 5 6 6 6 7 6 4 4 4 5 5 6 6 7
Wind_Direction
170 167 155 154 151 150 151 154 151 140 138 134 128 119 112 107 103 104 101 98 96 84 74 80 65 56 63 54 67 76 79 109 138 317 337 353 18 23 17 21 23 23 21
167 156 154 149 144 150 154 151 142 141 137 133 127 123 118 115 114 118 120 110 108 101 87 81 65 67 57 50 66 67 69 82 132 131 349 3 7 6 13 19 16 18 14
157 153 150 151 154 157 154 145 142 140 133 125 122 122 119 121 120 122 124 118 114 110 103 101 92 90 71 58 67 69 67 69 78 115 2 359 359 12 21 16 16 13 13
158 158 161 168 166 161 152 144 142 138 133 134 129 125 126 121 120 123 121 113 104 94 89 93 97 107 115 105 85 83 86 79 75 83 51 3 356 348 23 12 0 3 2
162 166 172 164 153 147 143 140 136 134 135 132 124 115 119 125 139 137 131 125 117 99 79 75 89 104 105 116 113 117 107 96 86 76 46 12 355 355 345 336 348 339 346
167 171 163 152 150 151 148 142 135 130 126 126 134 135 133 149 152 148 137 128 123 116 97 62 57 60 67 77 89 103 119 126 138 124 94 352 297 297 315 336 342 354 332
170 167 162 159 158 158 151 141 142 143 138 137 142 141 141 154 149 141 138 127 118 118 114 93 70 68 73 79 74 70 63 71 108 146 146 215 243 244 233 324 322 306 281
169 167 165 163 163 154 147 149 148 141 144 147 150 154 143 155 149 142 133 115 104 99 105 115 109 78 97 109 95 71 48 34 53 88 154 221 238 226 201 211 226 302 305
170 172 171 167 163 158 159 161 154 147 147 148 150 152 150 163 149 141 130 116 110 98 87 89 111 111 107 112 103 87 45 11 39 53 51 47 42 45 81 77 47 20 331
181 176 169 167 165 165 165 158 148 149 153 146 140 151 157 163 155 149 140 130 127 117 79 58 83 124 108 113 115 115 82 342 17 31 31 28 31 36 48 71 135 78 312
169 157 156 161 162 159 153 150 145 143 136 134 132 126 141 160 156 156 155 150 155 146 133 118 100 124 115 114 116 128 147 106 62 50 31 20 20 18 13 12 27 170 233
146 148 151 151 155 150 145 144 144 143 140 139 133 117 77 116 146 164 164 162 156 148 162 173 143 118 110 103 105 97 90 84 79 59 35 8 354 342 337 343 340 322 279
140 146 146 140 140 143 145 146 143 145 149 153 152 158 167 108 133 147 154 155 154 148 145 135 121 109 101 87 76 81 85 83 81 65 2 311 305 311 338 346 348 344 335
143 145 141 138 134 133 140 148 151 157 158 159 162 167 165 142 152 148 133 130 136 131 113 104 98 88 81 64 52 55 68 94 112 179 274 293 322 343 343 338 333 334 335
142 143 141 138 138 135 134 146 160 172 174 169 176 173 168 183 203 169 159 159 161 149 123 91 80 76 67 46 33 30 45 48 11 314 302 323 328 331 325 329 328 334 322
145 148 148 144 142 140 135 113 91 134 151 163 164 164 177 175 154 149 151 150 146 141 124 123 138 152 174 204 227 294 295 263 265 259 262 277 291 299 308 319 317 308 303
153 154 152 151 150 150 149 148 139 89 98 134 156 161 158 150 147 148 147 138 136 137 133 161 179 194 208 214 219 229 251 257 245 241 257 270 281 291 300 304 305 304 299
147 150 151 155 156 157 159 159 157 154 145 122 136 150 147 145 145 144 135 118 118 141 172 191 205 210 214 220 229 237 251 261 250 251 261 269 273 283 293 297 293 293 296
145 150 150 148 151 152 150 146 147 151 151 145 116 108 137 130 122 126 131 136 168 191 204 210 213 213 219 227 235 233 235 247 253 253 259 265 270 276 283 289 289 293 295
146 147 146 144 144 143 144 146 150 153 153 157 166 172 149 122 126 151 165 175 184 201 207 213 219 220 219 222 230 232 242 251 255 256 263 268 270 270 278 284 288 292 289
142 149 145 141 147 151 150 153 155 155 161 173 190 185 168 167 180 190 198 204 205 211 214 214 219 221 226 229 228 231 240 253 253 258 265 270 272 277 279 282 284 286 290
143 146 149 150 150 150 150 152 153 158 167 172 173 166 169 167 182 193 205 218 224 217 206 204 217 219 215 221 229 230 241 253 259 260 266 272 277 282 287 288 290 292 292
141 141 141 144 147 148 147 152 159 167 173 173 170 168 176 188 199 206 217 226 220 214 204 195 204 218 231 239 236 229 237 248 258 259 259 270 279 283 288 290 291 296 296
140 143 146 148 146 150 155 161 166 169 170 172 174 179 189 196 202 210 219 217 199 199 198 200 209 223 232 247 254 254 258 266 272 268 261 262 272 279 283 287 288 292 294
137 139 142 146 149 153 156 160 163 165 167 171 174 179 185 186 191 201 195 171 174 189 209 227 243 243 244 250 259 264 269 273 278 285 280 272 270 276 282 285 291 296 295
135 137 138 140 143 147 152 158 162 162 165 168 171 174 175 176 182 184 180 172 193 223 250 268 272 269 268 270 270 271 275 277 281 287 291 289 277 279 288 287 291 294 296
Height
1549 1552 1554 1556 1558 1559 1561 1562 1563 1564 1565 1566 1567 1568 1568 1569 1569 1570 1569 1569 1569 1569 1569 1569 1569 1569 1569 1569 1568 1568 1568 1567 1566 1566 1565 1564 1563 1561 1560 1558 1557 1555 1553
1548 1550 1553 1555 1557 1559 1560 1561 1563 1564 1565 1566 1567 1567 1568 1569 1569 1569 1569 1570 1570 1569 1569 1569 1569 1569 1569 1569 1568 1568 1567 1567 1566 1565 1564 1564 1562 1561 1560 1559 1557 1556 1554
1546 1549 1551 1554 1556 1557 1559 1560 1562 1563 1564 1565 1566 1567 1568 1569 1569 1569 1570 1570 1570 1570 1570 1569 1569 1569 1569 1569 1568 1568 1567 1567 1566 1565 1564 1563 1562 1561 1559 1558 1557 1556 1554
1544 1547 1550 1552 1554 1556 1558 1560 1561 1562 1564 1565 1566 1567 1568 1568 1569 1569 1569 1570 1570 1570 1570 1569 1569 1569 1569 1568 1568 1567 1567 1566 1565 1564 1563 1562 1561 1560 1559 1557 1556 1555 1553
1542 1545 1548 1550 1553 1555 1557 1558 1560 1562 1563 1564 1565 1567 1567 1568 1568 1569 1569 1569 1570 1569 1569 1569 1569 1569 1568 1568 1567 1567 1566 1565 1564 1563 1562 1561 1560 1559 1558 1556 1554 1553 1552
1540 1543 1546 1549 1551 1553 1555 1557 1559 1560 1562 1563 1565 1566 1566 1567 1568 1568 1568 1569 1569 1569 1568 1568 1568 1568 1568 1568 1567 1566 1566 1565 1564 1563 1562 1560 1559 1558 1557 1555 1554 1552 1550
1538 1541 1544 1547 1549 1551 1554 1555 1557 1559 1560 1562 1563 1565 1565 1566 1567 1567 1567 1568 1568 1568 1568 1568 1568 1568 1567 1567 1566 1566 1565 1564 1563 1563 1561 1560 1558 1557 1556 1554 1553 1551 1549
1535 1538 1542 1544 1547 1549 1551 1553 1555 1557 1559 1560 1562 1563 1564 1565 1566 1566 1567 1567 1567 1567 1567 1567 1567 1567 1566 1566 1566 1565 1564 1563 1562 1561 1560 1559 1557 1556 1555 1553 1552 1550 1548
1532 1536 1539 1542 1544 1546 1548 1551 1553 1555 1557 1559 1560 1562 1563 1564 1564 1565 1565 1566 1566 1566 1566 1566 1566 1566 1566 1565 1565 1564 1563 1562 1561 1560 1559 1558 1556 1555 1553 1552 1550 1548 1546
1529 1533 1536 1539 1542 1544 1546 1549 1551 1553 1555 1557 1558 1560 1561 1562 1563 1563 1564 1564 1564 1564 1564 1564 1564 1564 1564 1564 1563 1562 1561 1561 1560 1558 1557 1556 1555 1553 1552 1550 1548 1546 1544
1527 1531 1534 1537 1539 1542 1545 1547 1549 1551 1553 1555 1556 1558 1559 1560 1561 1562 1562 1563 1563 1563 1563 1563 1563 1563 1563 1562 1562 1561 1560 1559 1558 1556 1555 1554 1553 1551 1550 1548 1546 1545 1543
1525 1528 1531 1534 1537 1540 1542 1545 1547 1549 1551 1552 1554 1556 1557 1558 1559 1560 1560 1561 1561 1562 1562 1562 1562 1561 1561 1561 1560 1559 1558 1557 1556 1555 1553 1552 1550 1549 1547 1546 1544 1543 1541
1523 1526 1529 1532 1535 1537 1540 1542 1544 1546 1548 1550 1552 1553 1555 1556 1557 1558 1558 1559 1559 1559 1560 1560 1560 1559 1559 1559 1558 1557 1556 1555 1554 1552 1551 1550 1548 1547 1545 1544 1542 1540 1538
1520 1523 1527 1529 1532 1535 1537 1540 1542 1544 1546 1547 1549 1551 1552 1553 1555 1555 1556 1556 1557 1557 1557 1557 1557 1557 1557 1556 1556 1555 1554 1553 1552 1550 1549 1548 1546 1544 1542 1541 1539 1536 1534
1518 1521 1524 1527 1530 1532 1535 1537 1540 1542 1544 1545 1547 1548 1550 1551 1552 1553 1554 1554 1555 1555 1555 1555 1555 1554 1554 1554 1553 1552 1552 1551 1549 1548 1546 1545 1543 1542 1540 1538 1536 1533 1531
1515 1518 1522 1525 1527 1530 1532 1535 1537 1539 1541 1543 1545 1547 1548 1549 1550 1551 1552 1552 1552 1552 1552 1552 1552 1552 1551 1551 1551 1550 1549 1548 1547 1545 1544 1542 1541 1539 1537 1535 1532 1530 1527
1513 1516 1519 1522 1525 1527 1529 1532 1534 1537 1539 1541 1542 1544 1546 1547 1548 1548 1549 1549 1549 1550 1549 1549 1549 1549 1549 1549 1548 1548 1547 1546 1544 1543 1541 1540 1538 1536 1534 1531 1529 1527 1524
1512 1515 1517 1520 1522 1525 1527 1529 1531 1533 1536 1538 1540 1542 1543 1544 1545 1546 1546 1546 1546 1546 1546 1546 1546 1546 1546 1546 1545 1544 1544 1543 1541 1539 1538 1537 1535 1533 1530 1528 1525 1523 1520
1510 1512 1515 1518 1521 1523 1525 1527 1529 1531 1533 1535 1537 1539 1540 1541 1542 1543 1543 1543 1543 1543 1543 1543 1543 1543 1543 1542 1541 1541 1540 1539 1537 1536 1534 1533 1531 1529 1527 1524 1522 1519 1517
1508 1511 1513 1516 1518 1521 1523 1525 1527 1529 1531 1533 1535 1536 1537 1538 1539 1539 1540 1540 1540 1540 1540 1540 1540 1539 1539 1538 1537 1536 1536 1534 1533 1532 1530 1529 1527 1525 1523 1520 1518 1515 1512
1506 1509 1512 1514 1516 1518 1521 1523 1525 1527 1529 1531 1532 1534 1535 1536 1536 1536 1537 1537 1537 1537 1537 1537 1536 1536 1535 1534 1533 1532 1531 1530 1529 1527 1526 1524 1523 1520 1518 1516 1514 1511 1508
1505 1507 1509 1512 1514 1516 1518 1521 1523 1525 1527 1528 1530 1531 1532 1533 1533 1534 1534 1534 1534 1534 1534 1533 1532 1532 1531 1530 1529 1528 1527 1526 1524 1523 1521 1520 1518 1516 1514 1511 1509 1506 1503
1504 1506 1508 1510 1512 1514 1516 1519 1521 1522 1524 1525 1527 1528 1529 1529 1530 1530 1530 1530 1530 1530 1530 1529 1528 1527 1527 1526 1525 1524 1522 1521 1520 1519 1517 1515 1513 1511 1509 1506 1504 1501 1499
1502 1504 1506 1508 1510 1512 1514 1516 1518 1519 1521 1522 1523 1524 1525 1526 1526 1526 1526 1526 1526 1526 1526 1525 1524 1523 1522 1521 1521 1519 1518 1517 1516 1514 1512 1510 1508 1506 1504 1501 1499 1497 1494
1500 1502 1504 1506 1508 1510 1512 1514 1515 1517 1518 1519 1520 1521 1522 1522 1522 1523 1523 1522 1522 1522 1521 1521 1520 1519 1518 1517 1516 1515 1514 1513 1511 1510 1508 1506 1504 1501 1499 1497 1494 1492 1490
1498 1500 1502 1504 1506 1508 1509 1511 1512 1514 1515 1516 1517 1517 1518 1518 1519 1519 1519 1519 1518 1518 1517 1516 1516 1515 1514 1513 1512 1511 1509 1508 1506 1505 1503 1501 1499 1496 1494 1492 1490 1487 1485